Retour au catalogue

ORBCOMM FM 111

ActifCommunicationsLEO
NORAD 40089·PAYLOAD·🇺🇸 United States

Lancé Jul 14, 2014 depuis Cape Canaveral Space Force Station

Loading…

Prochains Passages (prochaines 24 heures)

TLE

FraisSource: Space-Track

Époque: Sep 14, 2026, 13:07 UTC

1 40089U 14040D   26257.54720935  .00001469  00000-0  17615-3 0  9990
2 40089  47.0021 320.1546 0028856 216.1599 143.7348 14.89171872657893

Suivez ORBCOMM FM 111 en temps réel avec AllMySat

Download on the App Store